Date String (YYYY-MM-DD hh:mm:ss) UTC,Instrument flags,absolute air pressure of the measurement (hPa),sample flow rate (lpm),inlet stack bypass flow (lpm),air temperature of the measurement (°C),ambient temperature measured by the external sensor (°C),aerosol sample conditioner tube jacket temperature (°C),OPC LED temperature (°C),internal box temperature (°C),relative humidity of the measurement (%),span deviation,mass concentration of particles derived from Lorenz-Mie calculation of OPC scattering (μg/m³),mass concentration of particles derived from Lorenz-Mie calculation of OPC scattering (μg/m³),mass concentration of particles derived from Lorenz-Mie calculation of OPC scattering (μg/m³)
DateTimeUTC,F1_M11,P_M11,Q1_M11,Q2_M11,T1_M11,T2_M11,T3_M11,T4_M11,T5_M11,U1_M11,ZSPAN_M11,X2_M11,X0_M11,X1_M11
2024-02-10 19:00:00,SystemResetWarning,0826.2,5.00,000.00,018.6,018.1,000.0,027.0,020.2,16.3,0000.0,0003.59,0004.81,0003.36
2024-02-10 19:01:00,SystemResetWarning,0826.2,5.00,000.00,018.6,018.1,000.0,027.0,020.3,16.2,0000.0,0003.61,0004.88,0003.37
2024-02-10 19:02:00,SystemResetWarning,0826.2,5.00,000.00,018.5,018.1,000.0,027.0,020.2,16.1,0000.0,0003.58,0004.69,0003.37
2024-02-10 19:03:00,SystemResetWarning,0826.2,5.00,000.00,018.5,018.1,000.0,027.0,020.2,16.2,0000.0,0003.60,0004.79,0003.37
2024-02-10 19:04:00,SystemResetWarning,0826.2,5.00,000.00,018.5,018.1,000.0,027.0,020.2,16.2,0000.0,0003.60,0004.81,0003.38
2024-02-10 19:05:00,SystemResetWarning,0826.2,5.00,000.00,018.5,018.1,000.0,027.0,020.2,16.2,0000.0,0003.59,0004.79,0003.39
2024-02-10 19:06:00,SystemResetWarning,0826.2,4.99,000.00,018.5,018.1,000.0,027.0,020.2,16.3,0000.0,0003.60,0005.04,0003.40
2024-02-10 19:07:00,SystemResetWarning,0826.1,5.00,000.00,018.5,018.1,000.0,027.0,020.2,16.7,0000.0,0003.62,0005.22,0003.41
2024-02-10 19:08:00,SystemResetWarning,0826.1,5.00,000.00,018.5,018.1,000.0,027.0,020.2,16.8,0000.0,0003.62,0005.16,0003.42
2024-02-10 19:09:00,SystemResetWarning,0826.0,5.00,000.00,018.5,018.1,000.0,027.0,020.2,16.8,0000.0,0003.64,0005.17,0003.43
2024-02-10 19:10:00,SystemResetWarning,0826.0,5.00,000.00,018.5,018.1,000.0,027.0,020.2,16.9,0000.0,0003.66,0005.17,0003.45
2024-02-10 19:11:00,SystemResetWarning,0826.0,5.00,000.00,018.5,018.1,000.0,027.0,020.2,16.8,0000.0,0003.64,0005.04,0003.47
2024-02-10 19:12:00,SystemResetWarning,0825.9,5.00,000.00,018.5,018.1,000.0,027.0,020.2,16.9,0000.0,0003.63,0004.89,0003.48
2024-02-10 19:13:00,SystemResetWarning,0825.9,5.00,000.00,018.5,018.1,000.0,027.0,020.2,17.2,0000.0,0003.67,0004.96,0003.52
2024-02-10 19:14:00,SystemResetWarning,0825.9,5.02,000.00,018.5,018.1,000.0,027.0,020.2,17.1,0000.0,0003.67,0004.86,0003.55
2024-02-10 19:15:00,SystemResetWarning,0825.9,5.00,000.00,018.5,018.1,000.0,027.0,020.2,16.9,0000.0,0003.71,0004.87,0003.59
2024-02-10 19:16:00,SystemResetWarning,0825.8,5.00,000.00,018.5,018.0,000.0,027.0,020.2,17.1,0000.0,0003.75,0005.00,0003.63
2024-02-10 19:17:00,SystemResetWarning,0825.9,4.99,000.00,018.5,018.0,000.0,027.0,020.2,17.1,0000.0,0003.80,0004.93,0003.67
2024-02-10 19:18:00,SystemResetWarning,0825.9,5.00,000.00,018.5,018.0,000.0,027.0,020.2,17.1,0000.0,0003.85,0004.96,0003.70
2024-02-10 19:19:00,SystemResetWarning,0825.9,5.01,000.00,018.5,018.0,000.0,026.9,020.2,16.9,0000.0,0003.91,0005.26,0003.76
2024-02-10 19:20:00,SystemResetWarning,0825.9,5.01,000.00,018.5,018.0,000.0,026.9,020.2,17.0,0000.0,0003.95,0005.39,0003.80
2024-02-10 19:21:00,SystemResetWarning,0825.9,5.00,000.00,018.5,018.0,000.0,026.9,020.2,17.1,0000.0,0004.01,0005.50,0003.85
2024-02-10 19:22:00,SystemResetWarning,0825.9,4.99,000.00,018.5,018.1,000.0,026.9,020.2,17.4,0000.0,0004.08,0005.61,0003.91
2024-02-10 19:23:00,SystemResetWarning,0825.9,4.99,000.00,018.5,018.1,000.0,026.9,020.2,17.5,0000.0,0004.14,0005.81,0003.96
2024-02-10 19:24:00,SystemResetWarning,0825.9,4.99,000.00,018.5,018.1,000.0,026.9,020.2,17.6,0000.0,0004.19,0005.98,0004.00
2024-02-10 19:25:00,SystemResetWarning,0825.9,5.00,000.00,018.5,018.0,000.0,026.9,020.2,17.7,0000.0,0004.26,0006.07,0004.06
2024-02-10 19:26:00,SystemResetWarning,0825.9,5.00,000.00,018.5,018.0,000.0,026.9,020.2,18.0,0000.0,0004.31,0006.15,0004.11
2024-02-10 19:27:00,SystemResetWarning,0825.9,5.02,000.00,018.4,018.0,000.0,026.9,020.2,18.2,0000.0,0004.37,0006.18,0004.17
2024-02-10 19:28:00,SystemResetWarning,0825.9,4.99,000.00,018.4,018.0,000.0,026.9,020.2,18.3,0000.0,0004.41,0006.17,0004.24
2024-02-10 19:29:00,SystemResetWarning,0826.0,4.99,000.00,018.4,018.0,000.0,026.9,020.1,18.4,0000.0,0004.48,0006.25,0004.32
2024-02-10 19:30:00,SystemResetWarning,0825.9,5.01,000.00,018.4,018.0,000.0,026.9,020.1,18.7,0000.0,0004.55,0006.11,0004.39
2024-02-10 19:31:00,SystemResetWarning,0825.9,5.02,000.00,018.4,018.0,000.0,026.9,020.1,18.7,0000.0,0004.61,0006.06,0004.45
2024-02-10 19:32:00,SystemResetWarning,0825.9,4.99,000.00,018.4,018.0,000.0,026.9,020.1,18.8,0000.0,0004.66,0006.11,0004.51
2024-02-10 19:33:00,SystemResetWarning,0825.9,4.99,000.00,018.4,017.9,000.0,026.9,020.1,18.7,0000.0,0004.74,0006.20,0004.59
2024-02-10 19:34:00,SystemResetWarning,0825.9,5.00,000.00,018.4,017.9,000.0,026.9,020.1,18.9,0000.0,0004.80,0006.26,0004.66
2024-02-10 19:35:00,SystemResetWarning,0825.9,5.02,000.00,018.4,017.9,000.0,026.9,020.1,19.1,0000.0,0004.86,0006.28,0004.72
2024-02-10 19:36:00,SystemResetWarning,0825.8,5.00,000.00,018.4,017.9,000.0,026.9,020.1,19.1,0000.0,0004.92,0006.45,0004.78
2024-02-10 19:37:00,SystemResetWarning,0825.9,5.00,000.00,018.4,017.9,000.0,026.9,020.1,18.9,0000.0,0004.96,0006.50,0004.82
2024-02-10 19:38:00,SystemResetWarning,0825.8,5.00,000.00,018.4,017.9,000.0,026.9,020.1,18.8,0000.0,0004.99,0006.52,0004.87
2024-02-10 19:39:00,SystemResetWarning,0825.8,5.00,000.00,018.3,017.9,000.0,026.9,020.1,19.0,0000.0,0005.05,0007.22,0004.91
2024-02-10 19:40:00,SystemResetWarning,0825.8,5.00,000.00,018.3,017.9,000.0,026.8,020.1,19.3,0000.0,0005.08,0007.56,0004.95
2024-02-10 19:41:00,SystemResetWarning,0825.7,5.00,000.00,018.3,017.9,000.0,026.8,020.0,19.1,0000.0,0005.12,0007.63,0004.98
2024-02-10 19:42:00,SystemResetWarning,0825.8,5.00,000.00,018.3,017.9,000.0,026.8,020.0,19.1,0000.0,0005.15,0007.65,0005.01
2024-02-10 19:43:00,SystemResetWarning,0825.8,5.00,000.00,018.3,017.9,000.0,026.8,020.0,19.3,0000.0,0005.17,0007.69,0005.02
2024-02-10 19:44:00,SystemResetWarning,0825.8,5.00,000.00,018.3,017.9,000.0,026.8,020.0,19.5,0000.0,0005.20,0007.73,0005.04
2024-02-10 19:45:00,SystemResetWarning,0825.8,5.00,000.00,018.3,017.9,000.0,026.8,020.0,19.6,0000.0,0005.21,0007.74,0005.05
2024-02-10 19:46:00,SystemResetWarning,0825.8,5.00,000.00,018.3,017.8,000.0,026.8,020.0,19.6,0000.0,0005.25,0007.75,0005.08
2024-02-10 19:47:00,SystemResetWarning,0825.8,5.00,000.00,018.3,017.8,000.0,026.8,020.0,19.8,0000.0,0005.25,0007.68,0005.11
2024-02-10 19:48:00,SystemResetWarning,0825.8,5.00,000.00,018.3,017.8,000.0,026.8,020.0,20.0,0000.0,0005.31,0007.78,0005.13
2024-02-10 19:49:00,SystemResetWarning,0825.7,5.00,000.00,018.3,017.8,000.0,026.8,020.0,20.1,0000.0,0005.33,0007.81,0005.15
2024-02-10 19:50:00,SystemResetWarning,0825.7,5.00,000.00,018.3,017.8,000.0,026.8,020.0,20.2,0000.0,0005.33,0007.42,0005.16
2024-02-10 19:51:00,SystemResetWarning,0825.7,5.00,000.00,018.3,017.8,000.0,026.8,020.0,20.1,0000.0,0005.34,0007.04,0005.18
2024-02-10 19:52:00,SystemResetWarning,0825.7,5.00,000.00,018.3,017.8,000.0,026.8,020.0,20.0,0000.0,0005.34,0007.34,0005.18
2024-02-10 19:53:00,SystemResetWarning,0825.7,5.00,000.00,018.3,017.8,000.0,026.8,020.0,19.9,0000.0,0005.37,0007.66,0005.19
2024-02-10 19:54:00,SystemResetWarning,0825.7,5.01,000.00,018.3,017.8,000.0,026.8,020.0,19.9,0000.0,0005.38,0007.66,0005.21
2024-02-10 19:55:00,SystemResetWarning,0825.7,5.00,000.00,018.3,017.8,000.0,026.8,020.0,19.8,0000.0,0005.39,0007.68,0005.22
2024-02-10 19:56:00,SystemResetWarning,0825.7,5.00,000.00,018.3,017.8,000.0,026.8,020.1,19.7,0000.0,0005.42,0007.76,0005.24
2024-02-10 19:57:00,SystemResetWarning,0825.7,5.00,000.00,018.3,017.8,000.0,026.8,020.0,19.7,0000.0,0005.42,0007.78,0005.24
2024-02-10 19:58:00,SystemResetWarning,0825.6,5.00,000.00,018.3,017.8,000.0,026.8,020.0,19.7,0000.0,0005.43,0007.79,0005.25
2024-02-10 19:59:00,SystemResetWarning,0825.7,5.00,000.00,018.3,017.8,000.0,026.7,020.0,19.6,0000.0,0005.42,0007.73,0005.25
